Location: Newark
(34.3481°N, 134.0494°E)
Time: 03:18:17
(UTC+00:00)

Vanguard 3 - Pass Details

Date: 05 February 2020
Orbit: 508 x 3263 km, 33.3° (Epoch: 16 February)

Event Time Altitude Azimuth Distance (km) Brightness Sun altitude
Rises 04:51:46 0° 236° (SW) 5,113 12.0 34.8°
Reaches altitude 10° 04:54:38 10° 233° (SW) 4,424 12.0 34.6°
Maximum altitude 05:07:53 67° 154° (SSE) 2,947 10.7 33.2°
Drops below altitude 10° 05:27:22 10° 78° (ENE) 6,205 11.3 30.9°
Sets 05:32:14 0° 77° (ENE) 7,195 11.6 30.3°
